Regional Weather Roundup
Issued by NWS

Home | Current Version | Previous Version | Graphics & Text | Print | Product List | Glossary On
Versions: 1 2 3 4 5 6 7 8 9 10 11 12 13 14 15 16 17 18 19 20 21 22 23 24 25 26 27 28 29 30 31 32 33 34 35 36 37 38 39 40 41 42 43 44 45 46 47 48 49 50
000
ASUS45 KSLC 171910
RWRUT

UTAH REGIONAL WEATHER ROUNDUP
NATIONAL WEATHER SERVICE SALT LAKE CITY UT
1200 PM MST FRI NOV 17 2017

UTZ001>011-023>025-172000-

NORTHERN UTAH

CITY           SKY/WX    TMP DP  RH WIND       PRES   REMARKS
BRIGHAM CITY   CLOUDY    39  32  76 NW8       29.87R WCI  33
HILL AFB       SNOW      36  34  93 NW22G29   29.86R VSB 1/2 WCI  24
LOGAN          FLURRIES  38  33  82 N5        29.85R WCI  34
OGDEN          LGT SNOW  35  33  92 NW9       29.88R FOG     WCI  28
SALT LAKE CITY LGT RAIN  40  38  93 E6        29.83F FOG
TOOELE VALLEY  RAIN      41  37  87 CALM      29.85R
WENDOVER       PTSUNNY   44  32  62 NW28G36   29.91R
HEBER CITY     MIX PCPN  34  32  93 SE13      29.79R WCI  25
WEST JORDAN    CLOUDY    34  34 100 CALM      29.84S

$$

UTZ011>015-024>027-172000-

CENTRAL/NORTHEAST UTAH

CITY           SKY/WX    TMP DP  RH WIND       PRES   REMARKS
PROVO AIRPORT  LGT RAIN  39  37  92 NW13      29.86R WCI  31
MOAB/CANYONLAN PTSUNNY   67  34  29 SW28G37   29.72F
DELTA            N/A     61  30  31 SW31G40   29.77F
PRICE          MOSUNNY   60  25  26 W22G32    29.73F
RICHFIELD      MOSUNNY   61  32  33 SW29G36   29.82
ROOSEVELT      PTSUNNY   63  30  29 SW35G41   29.64F
VERNAL         PTSUNNY   58  36  43 S9        29.62F

$$

UTZ013>016-019>022-027-172000-

SOUTHERN UTAH

CITY           SKY/WX    TMP DP  RH WIND       PRES   REMARKS
BRYCE CANYON   CLOUDY    49  32  52 W22G31    29.98F
CEDAR CITY     PTSUNNY   60  35  39 S22G32    29.90F
MILFORD        PTSUNNY   58  36  43 SW26G38   29.86F
ST GEORGE      CLOUDY    67  39  35 SW6       29.89F
HANKSVILLE     CLOUDY    68  32  26 SW23G33   29.79F
KANAB          MOSUNNY   63  36  36 SW22G33   29.98
BLANDING         N/A     59  33  37 SW22G31   29.98F

$$

REGIONAL REPORTS     COLORADO/ARIZONA

CITY           SKY/WX    TMP DP  RH WIND       PRES   REMARKS
CRAIG, CO      CLOUDY    37  33  85 VRB7      29.73S WCI  32
GRAND JUNCTION MOSUNNY   66  32  28 SW25G36   29.73F
RIFLE, CO        N/A     57  39  51 MISG      29.71F
MONTROSE, CO   CLOUDY    60  32  34 SW26G35   29.83F
CORTEZ, CO     CLOUDY    59  32  36 SW22G29   29.95F
COLORADO CITY    N/A     63  37  39 W17G25    29.99F
PAGE, AZ       MOSUNNY   68  37  32 SW13G21   29.89F
GRAND CANYON   CLOUDY    50  37  61 SW15      30.08F
KINGMAN, AZ    CLOUDY    67  39  35 SW22G29   30.03F
FLAGSTAFF, AZ  LGT RAIN  44  35  70 SW15      30.13F

$$

REGIONAL REPORTS    NEVADA/IDAHO/WYOMING

CITY           SKY/WX    TMP DP  RH WIND       PRES   REMARKS
LAS VEGAS, NV  PTSUNNY   73  42  32 SW23G36   29.85F
ELY, NY        CLOUDY    39  34  82 W17G24    29.92R WCI  30
ELKO, NV       LGT SNOW  34  29  82 SW9       30.02R WCI  27
POCATELLO, ID  CLOUDY    36  30  80 MISG      29.86R
BURLEY, ID     CLOUDY    36  32  85 W14G24    29.92R WCI  27
FORT BRIDGER,  LGT SNOW  34  34 100 SW18      29.78F WCI  23
EVANSTON, WY   SNOW      31  31 100 SW16      29.75F VSB 1/4 WCI  20
ROCK SPRINGS,  SNOW      31  30  96 SW16      29.74F VSB 1/4 WCI  20

$$



USA.gov is the U.S. government's official web portal to all federal, state and local government web resources and services.